SDT,��Ԑ��ʗ��i��Gy/h�j,�����ʗ��i��Gy/h),�~�J��i�����j,���J��,�����l�i��Gy/h�j,����l�i��Gy/h�j,�ߋ��̍ő�l�i��Gy/h�j
20111001010000,1.97,1.709,5.5,,0.036,0.057,0.101
20111001020000,1.985,1.72,0.5,,,,
20111001030000,1.997,1.729,0.0,,,,
20111001040000,2.007,1.734,0.0,,,,
20111001050000,2.01,1.737,0.0,,,,
20111001060000,2.016,1.736,0.0,,,,
20111001070000,2.022,1.74,0.0,,,,
20111001080000,2.023,1.743,0.0,,,,
20111001090000,2.02,1.748,0.0,,,,
20111001100000,2.013,1.755,0.0,,,,
20111001110000,2.007,1.759,0.0,,,,
20111001120000,2.001,1.762,0.0,,,,
20111001130000,1.999,1.767,0.0,,,,
20111001140000,1.989,1.768,0.0,,,,
20111001150000,1.985,1.767,0.0,,,,
20111001160000,1.98,1.767,0.0,,,,
20111001170000,1.987,1.767,0.0,,,,
20111001180000,1.996,1.766,0.0,,,,
20111001190000,2.003,1.765,0.0,,,,
20111001200000,2.012,1.764,0.0,,,,
20111001210000,2.017,1.766,0.0,,,,
20111001220000,2.021,1.763,0.0,,,,
20111001230000,2.026,1.762,0.0,,,,
20111002000000,2.03,1.76,0.0,,,,
20111002010000,2.034,1.76,0.0,,,,
20111002020000,2.04,1.76,0.0,,,,
20111002030000,2.044,1.759,0.0,,,,
20111002040000,2.045,1.759,0.0,,,,
20111002050000,2.043,1.757,0.0,,,,
20111002060000,2.04,1.756,0.0,,,,
20111002070000,2.038,1.749,0.0,,,,
20111002080000,2.036,1.75,0.0,,,,
20111002090000,2.036,1.75,0.0,,,,
20111002100000,2.037,1.75,0.0,,,,
20111002110000,2.029,1.746,0.0,,,,
20111002120000,2.03,1.744,0.0,,,,
20111002130000,2.033,1.746,0.0,,,,
20111002140000,2.033,1.746,0.0,,,,
20111002150000,2.035,1.748,0.0,,,,
20111002160000,2.035,1.748,0.0,,,,
20111002170000,2.035,1.75,0.0,,,,
20111002180000,2.036,1.75,0.0,,,,
20111002190000,2.036,1.747,0.0,,,,
20111002200000,2.036,1.75,0.0,,,,
20111002210000,2.037,1.75,0.0,,,,
20111002220000,2.037,1.75,0.0,,,,
20111002230000,2.037,1.751,0.0,,,,
20111003000000,2.038,1.751,0.0,,,,
20111003010000,2.037,1.753,0.0,,,,
20111003020000,2.038,1.752,0.0,,,,
20111003030000,2.031,1.747,0.5,,,,
20111003040000,2.028,1.743,0.0,,,,
20111003050000,2.03,1.742,0.0,,,,
20111003060000,2.03,1.745,0.0,,,,
20111003070000,2.028,1.742,0.0,,,,
20111003080000,2.026,1.742,0.0,,,,
20111003090000,2.012,1.732,1.5,,,,
20111003100000,2.007,1.724,0.5,,,,
20111003110000,2.002,1.72,1.0,,,,
20111003120000,1.997,1.717,2.0,,,,
20111003130000,1.997,1.715,1.5,,,,
20111003140000,1.983,1.704,5.0,,,,
20111003150000,1.974,1.697,7.5,,,,
20111003160000,1.971,1.693,7.0,,,,
20111003170000,1.958,1.683,12.5,,,,
20111003180000,1.965,1.688,8.5,,,,
20111003190000,1.953,1.678,11.0,,,,
20111003200000,1.946,1.671,5.0,,,,
20111003210000,1.944,1.671,4.5,,,,
20111003220000,1.943,1.667,4.0,,,,
20111003230000,1.93,1.659,8.0,,,,
20111004000000,1.927,1.656,6.0,,,,
20111004010000,1.924,1.652,10.5,,,,
20111004020000,1.92,1.65,11.0,,,,
20111004030000,1.921,1.651,8.5,,,,
20111004040000,1.92,1.65,7.5,,,,
20111004050000,1.917,1.648,6.0,,,,
20111004060000,1.915,1.645,6.0,,,,
20111004070000,1.925,1.653,2.0,,,,
20111004080000,1.92,1.651,4.5,,,,
20111004090000,1.924,1.653,2.0,,,,
20111004100000,1.936,1.663,0.5,,,,
20111004110000,1.949,1.673,0.0,,,,
20111004120000,1.96,1.683,0.0,,,,
20111004130000,1.971,1.694,0.0,,,,
20111004140000,1.981,1.701,0.0,,,,
20111004150000,1.985,1.707,0.0,,,,
20111004160000,1.988,1.708,0.0,,,,
20111004170000,1.99,1.71,0.0,,,,
20111004180000,1.992,1.713,0.0,,,,
20111004190000,1.994,1.713,0.0,,,,
20111004200000,1.994,1.715,0.0,,,,
20111004210000,1.996,1.715,0.0,,,,
20111004220000,1.995,1.714,0.0,,,,
20111004230000,1.996,1.715,0.0,,,,
20111005000000,1.996,1.715,0.0,,,,
20111005010000,1.998,1.717,0.0,,,,
20111005020000,2,1.718,0.0,,,,
20111005030000,1.997,1.718,0.0,,,,
20111005040000,1.999,1.717,0.0,,,,
20111005050000,1.998,1.718,0.0,,,,
20111005060000,1.999,1.718,0.0,,,,
20111005070000,2.001,1.719,0.0,,,,
20111005080000,2.004,1.722,0.0,,,,
20111005090000,2.009,1.725,0.0,,,,
20111005100000,2.009,1.732,0.0,,,,
20111005110000,2.004,1.737,0.0,,,,
20111005120000,1.997,1.74,0.0,,,,
20111005130000,1.99,1.743,0.0,,,,
20111005140000,1.989,1.745,0.0,,,,
20111005150000,1.988,1.75,0.0,,,,
20111005160000,1.986,1.748,0.0,,,,
20111005170000,1.986,1.746,0.0,,,,
20111005180000,1.984,1.742,0.0,,,,
20111005190000,1.994,1.742,0.0,,,,
20111005200000,2.01,1.741,0.0,,,,
20111005210000,2.022,1.739,0.0,,,,
20111005220000,2.024,1.739,0.0,,,,
20111005230000,2.024,1.739,0.0,,,,
20111006000000,2.025,1.738,0.0,,,,
20111006010000,2.026,1.738,0.0,,,,
20111006020000,2.024,1.739,0.0,,,,
20111006030000,2.025,1.738,0.0,,,,
20111006040000,2.025,1.739,0.0,,,,
20111006050000,2.024,1.737,0.0,,,,
20111006060000,2.023,1.737,0.0,,,,
20111006070000,2.024,1.738,0.0,,,,
20111006080000,2.026,1.739,0.0,,,,
20111006090000,2.031,1.743,0.0,,,,
20111006100000,2.028,1.747,0.0,,,,
20111006110000,2.019,1.75,0.0,,,,
20111006120000,2.012,1.752,0.0,,,,
20111006130000,2.006,1.75,0.0,,,,
20111006140000,2.005,1.751,0.0,,,,
20111006150000,2.006,1.752,0.0,,,,
20111006160000,2.009,1.752,0.0,,,,
20111006170000,2.009,1.75,0.0,,,,
20111006180000,2.014,1.748,0.0,,,,
20111006190000,2.021,1.75,0.0,,,,
20111006200000,2.029,1.749,0.0,,,,
20111006210000,2.035,1.749,0.0,,,,
20111006220000,2.036,1.75,0.0,,,,
20111006230000,2.035,1.748,0.0,,,,
20111007000000,2.033,1.747,0.0,,,,
20111007010000,2.017,1.733,0.5,,,,
20111007020000,2.011,1.729,1.0,,,,
20111007030000,2.003,1.721,1.5,,,,
20111007040000,1.999,1.719,1.0,,,,
20111007050000,1.996,1.714,0.5,,,,
20111007060000,1.991,1.71,1.0,,,,
20111007070000,1.988,1.706,1.5,,,,
20111007080000,1.984,1.702,1.5,,,,
20111007090000,1.983,1.704,0.5,,,,
20111007100000,1.984,1.703,1.0,,,,
20111007110000,1.99,1.708,0.0,,,,
20111007120000,1.994,1.71,0.0,,,,
20111007130000,2,1.717,0.0,,,,
20111007140000,1.998,1.722,0.0,,,,
20111007150000,1.996,1.725,0.0,,,,
20111007160000,1.991,1.726,0.0,,,,
20111007170000,1.995,1.726,0.0,,,,
20111007180000,2.004,1.725,0.0,,,,
20111007190000,2.008,1.724,0.0,,,,
20111007200000,2.006,1.723,0.0,,,,
20111007210000,2.007,1.725,0.0,,,,
20111007220000,2.006,1.724,0.0,,,,
20111007230000,2.004,1.722,0.0,,,,
20111008000000,2.006,1.723,0.0,,,,
20111008010000,2.006,1.722,0.0,,,,
20111008020000,2.005,1.722,0.0,,,,
20111008030000,2.004,1.721,0.0,,,,
20111008040000,2.004,1.721,0.0,,,,
20111008050000,2.004,1.719,0.0,,,,
20111008060000,2.004,1.719,0.0,,,,
20111008070000,2.004,1.72,0.0,,,,
20111008080000,2.01,1.724,0.0,,,,
20111008090000,2.015,1.726,0.0,,,,
20111008100000,2.017,1.73,0.0,,,,
20111008110000,2.019,1.735,0.0,,,,
20111008120000,2.022,1.737,0.0,,,,
20111008130000,2.017,1.738,0.0,,,,
20111008140000,2.016,1.738,0.0,,,,
20111008150000,2.014,1.74,0.0,,,,
20111008160000,2.01,1.74,0.0,,,,
20111008170000,2.011,1.737,0.0,,,,
20111008180000,2.018,1.738,0.0,,,,
20111008190000,2.022,1.735,0.0,,,,
20111008200000,2.022,1.736,0.0,,,,
20111008210000,2.021,1.734,0.0,,,,
20111008220000,2.021,1.735,0.0,,,,
20111008230000,2.02,1.733,0.0,,,,
20111009000000,2.021,1.734,0.0,,,,
20111009010000,2.021,1.734,0.0,,,,
20111009020000,2.022,1.736,0.0,,,,
20111009030000,2.019,1.734,0.0,,,,
20111009040000,2.02,1.733,0.0,,,,
20111009050000,2.02,1.732,0.0,,,,
20111009060000,2.02,1.733,0.0,,,,
20111009070000,2.02,1.734,0.0,,,,
20111009080000,2.024,1.733,0.0,,,,
20111009090000,2.027,1.739,0.0,,,,
20111009100000,2.029,1.741,0.0,,,,
20111009110000,2.029,1.742,0.0,,,,
20111009120000,2.027,1.744,0.0,,,,
20111009130000,2.021,1.744,0.0,,,,
20111009140000,2.021,1.746,0.0,,,,
20111009150000,2.022,1.745,0.0,,,,
20111009160000,2.02,1.745,0.0,,,,
20111009170000,2.02,1.747,0.0,,,,
20111009180000,2.028,1.744,0.0,,,,
20111009190000,2.03,1.742,0.0,,,,
20111009200000,2.03,1.743,0.0,,,,
20111009210000,2.03,1.742,0.0,,,,
20111009220000,2.03,1.74,0.0,,,,
20111009230000,2.028,1.74,0.0,,,,
20111010000000,2.029,1.742,0.0,,,,
20111010010000,2.029,1.74,0.0,,,,
20111010020000,2.028,1.74,0.0,,,,
20111010030000,2.027,1.74,0.0,,,,
20111010040000,2.028,1.74,0.0,,,,
20111010050000,2.026,1.737,0.0,,,,
20111010060000,2.025,1.74,0.0,,,,
20111010070000,2.027,1.74,0.0,,,,
20111010080000,2.029,1.742,0.0,,,,
20111010090000,2.031,1.744,0.0,,,,
20111010100000,2.035,1.746,0.0,,,,
20111010110000,2.035,1.747,0.0,,,,
20111010120000,2.031,1.749,0.0,,,,
20111010130000,2.03,1.752,0.0,,,,
20111010140000,2.025,1.751,0.0,,,,
20111010150000,2.022,1.751,0.0,,,,
20111010160000,2.025,1.751,0.0,,,,
20111010170000,2.029,1.747,0.0,,,,
20111010180000,2.029,1.744,0.0,,,,
20111010190000,2.029,1.743,0.0,,,,
20111010200000,2.03,1.742,0.0,,,,
20111010210000,2.031,1.744,0.0,,,,
20111010220000,2.03,1.743,0.0,,,,
20111010230000,2.029,1.741,0.0,,,,
20111011000000,2.026,1.74,0.5,,,,
20111011010000,2.018,1.734,2.0,,,,
20111011020000,2.01,1.726,0.0,,,,
20111011030000,2.011,1.725,0.0,,,,
20111011040000,2.012,1.726,0.5,,,,
20111011050000,2,1.719,2.0,,,,
20111011060000,1.992,1.707,2.5,,,,
20111011070000,1.987,1.704,1.0,,,,
20111011080000,1.993,1.709,0.5,,,,
20111011090000,1.995,1.713,0.0,,,,
20111011100000,2.002,1.717,0.0,,,,
20111011110000,2.006,1.722,0.0,,,,
20111011120000,2.004,1.727,0.0,,,,
20111011130000,2.004,1.732,0.0,,,,
20111011140000,2.001,1.733,0.0,,,,
20111011150000,2,1.733,0.0,,,,
20111011160000,2.001,1.733,0.0,,,,
20111011170000,2.005,1.734,0.0,,,,
20111011180000,2.012,1.733,0.0,,,,
20111011190000,2.016,1.731,0.0,,,,
20111011200000,2.016,1.732,0.0,,,,
20111011210000,2.015,1.731,0.0,,,,
20111011220000,2.015,1.731,0.0,,,,
20111011230000,2.015,1.729,0.0,,,,
20111012000000,2.017,1.73,0.0,,,,
20111012010000,2.017,1.73,0.0,,,,
20111012020000,2.018,1.734,0.0,,,,
20111012030000,2.017,1.734,0.0,,,,
20111012040000,2.018,1.733,0.0,,,,
20111012050000,2.015,1.733,0.0,,,,
20111012060000,2.016,1.733,0.0,,,,
20111012070000,2.018,1.733,0.0,,,,
20111012080000,2.022,1.735,0.0,,,,
20111012090000,2.026,1.737,0.0,,,,
20111012100000,2.025,1.739,0.0,,,,
20111012110000,2.021,1.742,0.0,,,,
20111012120000,2.018,1.747,0.0,,,,
20111012130000,2.012,1.748,0.0,,,,
20111012140000,2.01,1.749,0.0,,,,
20111012150000,2.009,1.749,0.0,,,,
20111012160000,2.011,1.748,0.0,,,,
20111012170000,2.014,1.746,0.0,,,,
20111012180000,2.02,1.744,0.0,,,,
20111012190000,2.028,1.744,0.0,,,,
20111012200000,2.027,1.743,0.0,,,,
20111012210000,2.028,1.741,0.0,,,,
20111012220000,2.03,1.744,0.0,,,,
20111012230000,2.029,1.742,0.0,,,,
20111013000000,2.029,1.742,0.0,,,,
20111013010000,2.028,1.742,0.0,,,,
20111013020000,2.027,1.74,0.0,,,,
20111013030000,2.025,1.74,0.0,,,,
20111013040000,2.027,1.74,0.0,,,,
20111013050000,2.031,1.743,0.0,,,,
20111013060000,2.028,1.742,0.0,,,,
20111013070000,2.03,1.74,0.0,,,,
20111013080000,2.032,1.744,0.0,,,,
20111013090000,2.036,1.747,0.0,,,,
20111013100000,2.036,1.749,0.0,,,,
20111013110000,2.034,1.754,0.0,,,,
20111013120000,2.026,1.756,0.0,,,,
20111013130000,2.021,1.757,0.0,,,,
20111013140000,2.01,1.758,0.0,,,,
20111013150000,2.006,1.759,0.0,,,,
20111013160000,2,1.757,0.0,,,,
20111013170000,2.003,1.754,0.0,,,,
20111013180000,2.012,1.751,0.0,,,,
20111013190000,2.031,1.75,0.0,,,,
20111013200000,2.037,1.75,0.0,,,,
20111013210000,2.034,1.748,0.0,,,,
20111013220000,2.036,1.749,0.0,,,,
20111013230000,2.037,1.749,0.0,,,,
20111014000000,2.035,1.746,0.0,,,,
20111014010000,2.035,1.748,0.0,,,,
20111014020000,2.034,1.747,0.0,,,,
20111014030000,2.033,1.747,0.0,,,,
20111014040000,2.037,1.747,0.0,,,,
20111014050000,2.034,1.747,0.0,,,,
20111014060000,2.033,1.745,0.0,,,,
20111014070000,2.032,1.743,0.0,,,,
20111014080000,2.036,1.746,0.0,,,,
20111014090000,2.041,1.75,0.0,,,,
20111014100000,2.041,1.753,0.0,,,,
20111014110000,2.036,1.757,0.0,,,,
20111014120000,2.029,1.758,0.0,,,,
20111014130000,2.022,1.759,0.0,,,,
20111014140000,2.019,1.759,0.0,,,,
20111014150000,2.018,1.759,0.0,,,,
20111014160000,2.018,1.759,0.0,,,,
20111014170000,2.024,1.757,0.0,,,,
20111014180000,2.035,1.756,0.0,,,,
20111014190000,2.041,1.754,0.0,,,,
20111014200000,2.044,1.755,0.0,,,,
20111014210000,2.044,1.755,0.0,,,,
20111014220000,2.042,1.755,0.0,,,,
20111014230000,2.042,1.756,0.0,,,,
20111015000000,2.041,1.753,0.0,,,,
20111015010000,2.042,1.752,0.0,,,,
20111015020000,2.042,1.754,0.0,,,,
20111015030000,2.042,1.752,0.0,,,,
20111015040000,2.038,1.751,0.0,,,,
20111015050000,2.038,1.749,0.0,,,,
20111015060000,2.036,1.749,0.0,,,,
20111015070000,2.036,1.748,0.0,,,,
20111015080000,2.041,1.751,0.0,,,,
20111015090000,2.047,1.759,0.0,,,,
20111015100000,2.044,1.763,0.0,,,,
20111015110000,2.037,1.763,0.0,,,,
20111015120000,2.028,1.766,0.0,,,,
20111015130000,2.017,1.766,0.0,,,,
20111015140000,2.01,1.764,0.0,,,,
20111015150000,2.009,1.763,0.0,,,,
20111015160000,2.011,1.762,0.0,,,,
20111015170000,2.015,1.762,0.0,,,,
20111015180000,2.025,1.757,0.0,,,,
20111015190000,2.041,1.758,0.0,,,,
20111015200000,2.042,1.755,0.0,,,,
20111015210000,2.042,1.752,0.0,,,,
20111015220000,2.039,1.751,0.0,,,,
20111015230000,2.038,1.75,0.0,,,,
20111016000000,2.038,1.749,0.0,,,,
20111016010000,2.037,1.748,0.0,,,,
20111016020000,2.035,1.748,0.0,,,,
20111016030000,2.033,1.747,0.0,,,,
20111016040000,2.034,1.744,0.0,,,,
20111016050000,2.032,1.744,0.0,,,,
20111016060000,2.031,1.743,0.0,,,,
20111016070000,2.031,1.743,0.0,,,,
20111016080000,2.037,1.747,0.0,,,,
20111016090000,2.044,1.754,0.0,,,,
20111016100000,2.047,1.759,0.0,,,,
20111016110000,2.042,1.759,0.0,,,,
20111016120000,2.037,1.76,0.0,,,,
20111016130000,2.03,1.764,0.0,,,,
20111016140000,2.023,1.765,0.0,,,,
20111016150000,2.015,1.764,0.0,,,,
20111016160000,2.013,1.764,0.0,,,,
20111016170000,2.009,1.76,0.0,,,,
20111016180000,2.017,1.759,0.0,,,,
20111016190000,2.037,1.756,0.0,,,,
20111016200000,2.041,1.755,0.0,,,,
20111016210000,2.042,1.754,0.0,,,,
20111016220000,2.041,1.753,0.0,,,,
20111016230000,2.039,1.75,0.0,,,,
20111017000000,2.038,1.75,0.0,,,,
20111017010000,2.037,1.749,0.0,,,,
20111017020000,2.037,1.748,0.0,,,,
20111017030000,2.035,1.745,0.0,,,,
20111017040000,2.035,1.745,0.0,,,,
20111017050000,2.034,1.747,0.0,,,,
20111017060000,2.035,1.744,0.0,,,,
20111017070000,2.036,1.747,0.0,,,,
20111017080000,2.04,1.749,0.0,,,,
20111017090000,2.044,1.751,0.0,,,,
20111017100000,2.049,1.757,0.0,,,,
20111017110000,2.051,1.762,0.0,,,,
20111017120000,2.048,1.765,0.0,,,,
20111017130000,2.043,1.768,0.0,,,,
20111017140000,2.033,1.77,0.0,,,,
20111017150000,2.021,1.771,0.0,,,,
20111017160000,2.019,1.769,0.0,,,,
20111017170000,2.019,1.766,0.0,,,,
20111017180000,2.005,1.744,2.0,,,,
20111017190000,1.988,1.714,9.0,,,,
20111017200000,1.959,1.683,16.5,,,,
20111017210000,1.955,1.677,8.0,,,,
20111017220000,1.966,1.686,1.0,,,,
20111017230000,1.966,1.689,1.5,,,,
20111018000000,1.958,1.682,2.5,,,,
20111018010000,1.958,1.679,1.5,,,,
20111018020000,1.966,1.686,0.0,,,,
20111018030000,1.97,1.692,0.5,,,,
20111018040000,1.969,1.691,0.0,,,,
20111018050000,1.973,1.692,0.0,,,,
20111018060000,1.975,1.693,0.0,,,,
20111018070000,1.975,1.696,0.0,,,,
20111018080000,1.981,1.699,0.0,,,,
20111018090000,1.984,1.703,0.5,,,,
20111018100000,1.985,1.703,0.0,,,,
20111018110000,1.977,1.698,0.0,,,,
20111018120000,1.988,1.706,0.0,,,,
20111018130000,1.991,1.709,0.0,,,,
20111018140000,1.991,1.708,0.0,,,,
20111018150000,1.994,1.711,0.0,,,,
20111018160000,1.994,1.711,0.0,,,,
20111018170000,1.994,1.712,0.0,,,,
20111018180000,1.996,1.713,0.0,,,,
20111018190000,1.997,1.713,0.0,,,,
20111018200000,1.996,1.713,0.0,,,,
20111018210000,1.995,1.715,0.0,,,,
20111018220000,1.995,1.712,0.0,,,,
20111018230000,1.995,1.712,0.0,,,,
20111019000000,1.992,1.708,0.0,,,,
20111019010000,1.987,1.704,0.5,,,,
20111019020000,1.987,1.705,0.0,,,,
20111019030000,1.988,1.704,0.0,,,,
20111019040000,1.99,1.705,0.0,,,,
20111019050000,1.989,1.707,0.0,,,,
20111019060000,1.991,1.707,0.0,,,,
20111019070000,1.99,1.708,0.0,,,,
20111019080000,1.991,1.71,0.0,,,,
20111019090000,1.996,1.713,0.0,,,,
20111019100000,2.001,1.715,0.0,,,,
20111019110000,2.006,1.722,0.0,,,,
20111019120000,2.011,1.726,0.0,,,,
20111019130000,2.007,1.729,0.0,,,,
20111019140000,2.005,1.73,0.0,,,,
20111019150000,2.002,1.733,0.0,,,,
20111019160000,2.001,1.732,0.0,,,,
20111019170000,1.999,1.732,0.0,,,,
20111019180000,2.006,1.73,0.0,,,,
20111019190000,2.013,1.73,0.0,,,,
20111019200000,2.011,1.726,0.0,,,,
20111019210000,2.01,1.726,0.0,,,,
20111019220000,2.012,1.727,0.0,,,,
20111019230000,2.013,1.726,0.0,,,,
20111020000000,2.014,1.726,0.0,,,,
20111020010000,2.014,1.727,0.0,,,,
20111020020000,2.012,1.726,0.0,,,,
20111020030000,2.01,1.724,0.0,,,,
20111020040000,2.01,1.724,0.0,,,,
20111020050000,2.009,1.722,0.0,,,,
20111020060000,2.008,1.722,0.0,,,,
20111020070000,2.01,1.722,0.0,,,,
20111020080000,2.013,1.723,0.0,,,,
20111020090000,2.017,1.728,0.0,,,,
20111020100000,2.022,1.734,0.0,,,,
20111020110000,2.017,1.736,0.0,,,,
20111020120000,2.012,1.737,0.0,,,,
20111020130000,2.006,1.74,0.0,,,,
20111020140000,2.002,1.741,0.0,,,,
20111020150000,2.005,1.741,0.0,,,,
20111020160000,2.005,1.742,0.0,,,,
20111020170000,2.005,1.739,0.0,,,,
20111020180000,2.013,1.737,0.0,,,,
20111020190000,2.021,1.734,0.0,,,,
20111020200000,2.021,1.734,0.0,,,,
20111020210000,2.02,1.734,0.0,,,,
20111020220000,2.019,1.733,0.0,,,,
20111020230000,2.019,1.731,0.0,,,,
20111021000000,2.018,1.733,0.0,,,,
20111021010000,2.019,1.732,0.0,,,,
20111021020000,2.017,1.73,0.0,,,,
20111021030000,2.017,1.729,0.0,,,,
20111021040000,2.016,1.731,0.0,,,,
20111021050000,2.015,1.728,0.0,,,,
20111021060000,2.016,1.728,0.0,,,,
20111021070000,2.016,1.728,0.0,,,,
20111021080000,2.02,1.732,0.0,,,,
20111021090000,2.027,1.737,0.0,,,,
20111021100000,2.028,1.743,0.0,,,,
20111021110000,2.02,1.746,0.0,,,,
20111021120000,2.017,1.746,0.0,,,,
20111021130000,2.014,1.747,0.0,,,,
20111021140000,2.013,1.748,0.0,,,,
20111021150000,2.011,1.75,0.0,,,,
20111021160000,2,1.749,0.0,,,,
20111021170000,1.993,1.744,0.0,,,,
20111021180000,1.998,1.742,0.0,,,,
20111021190000,2.016,1.741,0.0,,,,
20111021200000,2.025,1.738,0.0,,,,
20111021210000,2.024,1.737,0.0,,,,
20111021220000,2.024,1.735,0.0,,,,
20111021230000,2.022,1.735,0.0,,,,
20111022000000,2.02,1.734,0.0,,,,
20111022010000,2.021,1.734,0.0,,,,
20111022020000,2.021,1.734,0.0,,,,
20111022030000,2.02,1.731,0.0,,,,
20111022040000,2.021,1.733,0.0,,,,
20111022050000,2.019,1.733,0.0,,,,
20111022060000,2.018,1.733,0.0,,,,
20111022070000,2.017,1.733,0.0,,,,
20111022080000,2.021,1.734,0.0,,,,
20111022090000,2.026,1.737,0.0,,,,
20111022100000,2.03,1.74,0.0,,,,
20111022110000,2.029,1.744,0.0,,,,
20111022120000,2.026,1.747,0.0,,,,
20111022130000,2.019,1.747,0.0,,,,
20111022140000,2.015,1.748,0.0,,,,
20111022150000,2.011,1.749,0.0,,,,
20111022160000,2.008,1.747,0.0,,,,
20111022170000,2.008,1.747,0.0,,,,
20111022180000,2.019,1.747,0.0,,,,
20111022190000,2.03,1.745,0.0,,,,
20111022200000,2.029,1.745,0.0,,,,
20111022210000,2.029,1.742,0.0,,,,
20111022220000,2.03,1.742,0.0,,,,
20111022230000,2.03,1.742,0.0,,,,
20111023000000,2.028,1.743,0.0,,,,
20111023010000,2.033,1.746,0.0,,,,
20111023020000,2.034,1.748,0.0,,,,
20111023030000,2.038,1.748,0.0,,,,
20111023040000,2.038,1.749,0.0,,,,
20111023050000,2.037,1.75,0.0,,,,
20111023060000,2.037,1.75,0.0,,,,
20111023070000,2.038,1.748,0.0,,,,
20111023080000,2.038,1.752,0.0,,,,
20111023090000,2.038,1.752,0.0,,,,
20111023100000,2.04,1.752,0.0,,,,
20111023110000,2.036,1.751,0.0,,,,
20111023120000,2.029,1.745,0.0,,,,
20111023130000,2.032,1.746,0.0,,,,
20111023140000,2.029,1.744,0.0,,,,
20111023150000,2.027,1.742,0.0,,,,
20111023160000,2.026,1.741,0.0,,,,
20111023170000,2.02,1.736,0.5,,,,
20111023180000,2.013,1.729,0.5,,,,
20111023190000,2.004,1.723,1.5,,,,
20111023200000,1.994,1.714,2.0,,,,
20111023210000,1.988,1.707,4.5,,,,
20111023220000,1.991,1.711,0.0,,,,
20111023230000,1.983,1.703,0.0,,,,
20111024000000,1.982,1.7,0.0,,,,
20111024010000,1.985,1.703,0.0,,,,
20111024020000,1.987,1.704,0.0,,,,
20111024030000,1.986,1.704,0.0,,,,
20111024040000,1.986,1.704,0.0,,,,
20111024050000,1.987,1.704,0.0,,,,
20111024060000,1.986,1.703,0.0,,,,
20111024070000,1.987,1.703,0.0,,,,
20111024080000,1.991,1.707,0.0,,,,
20111024090000,1.998,1.714,0.0,,,,
20111024100000,2.004,1.717,0.0,,,,
20111024110000,2.006,1.721,0.0,,,,
20111024120000,2.011,1.723,0.0,,,,
20111024130000,2.011,1.726,0.0,,,,
20111024140000,2.01,1.726,0.0,,,,
20111024150000,2.012,1.725,0.0,,,,
20111024160000,2.012,1.726,0.0,,,,
20111024170000,2.011,1.725,0.0,,,,
20111024180000,2.007,1.724,0.0,,,,
20111024190000,2.006,1.72,0.0,,,,
20111024200000,2.004,1.719,0.0,,,,
20111024210000,2.004,1.718,0.0,,,,
20111024220000,2.005,1.719,0.0,,,,
20111024230000,2.004,1.718,0.0,,,,
20111025000000,2.004,1.72,0.0,,,,
20111025010000,2.004,1.716,0.0,,,,
20111025020000,2.002,1.716,0.0,,,,
20111025030000,2.004,1.716,0.0,,,,
20111025040000,2.004,1.716,0.0,,,,
20111025050000,2.003,1.718,0.0,,,,
20111025060000,2.005,1.717,0.0,,,,
20111025070000,2.003,1.717,0.0,,,,
20111025080000,2.006,1.719,0.0,,,,
20111025090000,2.012,1.723,0.0,,,,
20111025100000,2.015,1.727,0.0,,,,
20111025110000,2.012,1.729,0.0,,,,
20111025120000,2.01,1.73,0.0,,,,
20111025130000,2.012,1.735,0.0,,,,
20111025140000,2.011,1.735,0.0,,,,
20111025150000,2.007,1.735,0.0,,,,
20111025160000,2.015,1.732,0.0,,,,
20111025170000,2.018,1.732,0.0,,,,
20111025180000,2.016,1.73,0.0,,,,
20111025190000,2.015,1.728,0.0,,,,
20111025200000,2.015,1.73,0.0,,,,
20111025210000,2.015,1.726,0.0,,,,
20111025220000,2.013,1.727,0.0,,,,
20111025230000,2.014,1.727,0.0,,,,
20111026000000,2.011,1.726,0.0,,,,
20111026010000,2.014,1.726,0.0,,,,
20111026020000,2.014,1.726,0.0,,,,
20111026030000,2.015,1.726,0.0,,,,
20111026040000,2.012,1.724,0.0,,,,
20111026050000,2.011,1.725,0.0,,,,
20111026060000,2.01,1.724,0.0,,,,
20111026070000,2.01,1.721,0.0,,,,
20111026080000,2.012,1.726,0.0,,,,
20111026090000,2.018,1.731,0.0,,,,
20111026100000,2.018,1.733,0.0,,,,
20111026110000,2.013,1.737,0.0,,,,
20111026120000,2.006,1.738,0.0,,,,
20111026130000,1.999,1.738,0.0,,,,
20111026140000,1.992,1.739,0.0,,,,
20111026150000,1.989,1.738,0.0,,,,
20111026160000,1.993,1.738,0.0,,,,
20111026170000,1.996,1.735,0.0,,,,
20111026180000,2.011,1.734,0.0,,,,
20111026190000,2.017,1.732,0.0,,,,
20111026200000,2.015,1.731,0.0,,,,
20111026210000,2.015,1.73,0.0,,,,
20111026220000,2.014,1.727,0.0,,,,
20111026230000,2.015,1.728,0.0,,,,
20111027000000,2.017,1.728,0.0,,,,
20111027010000,2.015,1.727,0.0,,,,
20111027020000,2.016,1.728,0.0,,,,
20111027030000,2.015,1.728,0.0,,,,
20111027040000,2.016,1.728,0.0,,,,
20111027050000,2.015,1.728,0.0,,,,
20111027060000,2.015,1.728,0.0,,,,
20111027070000,2.016,1.728,0.0,,,,
20111027080000,2.017,1.728,0.0,,,,
20111027090000,2.019,1.731,0.0,,,,
20111027100000,2.021,1.735,0.0,,,,
20111027110000,2.018,1.737,0.0,,,,
20111027120000,2.014,1.739,0.0,,,,
20111027130000,2.005,1.739,0.0,,,,
20111027140000,2.002,1.738,0.0,,,,
20111027150000,2.003,1.74,0.0,,,,
20111027160000,2.005,1.737,0.0,,,,
20111027170000,2.011,1.736,0.0,,,,
20111027180000,2.021,1.735,0.0,,,,
20111027190000,2.019,1.732,0.0,,,,
20111027200000,2.02,1.733,0.0,,,,
20111027210000,2.02,1.734,0.0,,,,
20111027220000,2.018,1.732,0.0,,,,
20111027230000,2.019,1.732,0.0,,,,
20111028000000,2.019,1.732,0.0,,,,
20111028010000,2.018,1.73,0.0,,,,
20111028020000,2.015,1.728,0.0,,,,
20111028030000,2.016,1.727,0.0,,,,
20111028040000,2.016,1.727,0.0,,,,
20111028050000,2.015,1.728,0.0,,,,
20111028060000,2.017,1.729,0.0,,,,
20111028070000,2.014,1.727,0.0,,,,
20111028080000,2.008,1.722,0.5,,,,
20111028090000,2.007,1.723,0.0,,,,
20111028100000,2.007,1.721,0.0,,,,
20111028110000,2.012,1.724,0.0,,,,
20111028120000,2.016,1.729,0.0,,,,
20111028130000,2.017,1.732,0.0,,,,
20111028140000,2.012,1.727,0.0,,,,
20111028150000,2.018,1.733,0.0,,,,
20111028160000,2.019,1.731,0.0,,,,
20111028170000,2.011,1.726,0.5,,,,
20111028180000,2.004,1.721,0.5,,,,
20111028190000,1.988,1.708,2.0,,,,